カタログに戻る

FENGYUN 1C DEB

運用中PO
NORAD 31746·DEBRIS·🇨🇳 China

打ち上げ May 10, 1999 から Taiyuan Satellite Launch Center

Loading…

次のパス (今後24時間)

TLE

最新Source: Space-Track

元期: Sep 13, 2026, 21:09 UTC

1 31746U 99025CEV 26256.88147411  .00023872  00000-0  23478-2 0  9999
2 31746  98.6022  45.9394 0016678  42.6390 317.6117 14.92007477  9406

AllMySatでFENGYUN 1C DEBをリアルタイム追跡

Download on the App Store